Regional Weather Roundup
Issued by NWS

Home | Current Version | Previous Version | Graphics & Text | Print | Product List | Glossary On
Versions: 1 2 3 4 5 6 7 8 9 10 11 12 13 14 15 16 17 18 19 20 21 22 23 24 25 26 27 28 29 30 31 32 33 34 35 36 37 38 39 40 41 42 43 44 45 46 47 48 49 50
153
ASUS43 KMKX 090011
RWRWI

WISCONSIN REGIONAL WEATHER ROUNDUP
NATIONAL WEATHER SERVICE MILWAUKEE/SULLIVAN WI
600 PM CST MON FEB 08 2016

NOTE: "FAIR" INDICATES FEW OR NO CLOUDS BELOW 12,000 FEET WITH NO
SIGNIFICANT WEATHER AND/OR OBSTRUCTIONS TO VISIBILITY.

WIZ001-002-006>008-014>016-023>028-090100-
NORTHWEST WISCONSIN

CITY           SKY/WX    TMP DP  RH WIND       PRES   REMARKS
SUPERIOR ARPT  FLURRIES  11   2  66 N14G24    29.98R WCI  -4
6HR MIN TEMP:  11; 6HR MAX TEMP:  14;

ASHLAND        LGT SNOW  13   8  81 NW12      29.90R WCI  -1
6HR MIN TEMP:  13; 6HR MAX TEMP:  18; 6HR PCP:  0.01;

HAYWARD        LGT SNOW  10   5  80 N8        29.88S WCI  -2
6HR MIN TEMP:  10; 6HR MAX TEMP:  14; 6HR PCP: TRACE;

SIREN          FLURRIES  12   6  77 NW12      29.94R WCI  -2
6HR MIN TEMP:  12; 6HR MAX TEMP:  15;

CUMBERLAND     LGT SNOW  12   9  85 NW9       29.88S WCI   0
RICE LAKE      LGT SNOW  13   8  79 NW9G17    29.90S WCI   1
6HR MIN TEMP:  13; 6HR MAX TEMP:  15;

CHETEK         LGT SNOW  12   8  84 NW5       29.89R WCI   4
6HR MIN TEMP:  12; 6HR MAX TEMP:  15;

LADYSMITH      CLOUDY    13   6  73 NW12G20   29.86S WCI  -1
6HR MIN TEMP:  13; 6HR MAX TEMP:  18;

EAU CLAIRE     LGT SNOW  13   6  74 NW10      29.89S WCI   0
6HR MIN TEMP:  13; 6HR MAX TEMP:  16; 6HR PCP: TRACE;

MENOMONIE      LGT SNOW  15   9  76 NW14      29.91S WCI   0
6HR MIN TEMP:  15; 6HR MAX TEMP:  17;

NEW RICHMOND   LGT SNOW  13   8  79 NW13      29.94R WCI  -1
6HR MIN TEMP:  13; 6HR MAX TEMP:  15;

OSCEOLA        FLURRIES  14   7  75 NW14      29.98R WCI  -1
6HR MIN TEMP:  14; 6HR MAX TEMP:  17;

$$

WIZ003>005-009-010-017-018-090100-
NORTH CENTRAL WISCONSIN

CITY           SKY/WX    TMP DP  RH WIND       PRES   REMARKS
MANITOWISH WTR LGT SNOW  12   9  87 NW7       29.77S WCI   1
6HR MIN TEMP:  12; 6HR MAX TEMP:  17;

ARBOR VITAE    FLURRIES  14   9  79 NW10      29.76S WCI   1
6HR MIN TEMP:  14; 6HR MAX TEMP:  22;

WOODRUFF       FLURRIES  14   9  79 NW10      29.76S WCI   1
6HR MIN TEMP:  14; 6HR MAX TEMP:  22;

RHINELANDER    LGT SNOW  15   9  76 NW13G21   29.74S WCI   1
6HR MIN TEMP:  15; 6HR MAX TEMP:  23; 6HR PCP: TRACE;

EAGLE RIVER    LGT SNOW  14   7  75 NW9G20    29.74R WCI   2
LAND O LAKES   LGT SNOW  14   9  81 NW10      29.75R WCI   1
6HR MIN TEMP:  14; 6HR MAX TEMP:  20;

PHILLIPS       FLURRIES  11   6  78 NW10G18   29.80R WCI  -2
6HR MIN TEMP:  11; 6HR MAX TEMP:  18;

TOMAHAWK       LGT SNOW  14  10  81 NW7       29.77S WCI   4
6HR MIN TEMP:  14; 6HR MAX TEMP:  23;

MEDFORD        LGT SNOW  13   8  83 NW15      29.78R WCI  -3
6HR MIN TEMP:  13; 6HR MAX TEMP:  19;

MERRILL        LGT SNOW  17  12  83 N7        29.78R WCI   7
6HR MIN TEMP:  17; 6HR MAX TEMP:  25;

$$

WIZ029-030-035-036-043>047-090100-
CENTRAL WISCONSIN

CITY           SKY/WX    TMP DP  RH WIND       PRES   REMARKS
WAUSAU         LGT SNOW  19  14  81 NW10      29.75R WCI   7
6HR MIN TEMP:  19; 6HR MAX TEMP:  26; 6HR PCP: TRACE;

MOSINEE        LGT SNOW  18  16  93 NW15G21   29.77  WCI   3
MARSHFIELD     LGT SNOW  15   8  73 NW15      29.78S WCI   0
6HR MIN TEMP:  15; 6HR MAX TEMP:  21; 6HR PCP: TRACE;

STEVENS POINT  LGT SNOW  17  13  85 NW9       29.77R WCI   5
6HR MIN TEMP:  17; 6HR MAX TEMP:  26;

WAUPACA        CLOUDY    27  17  66 W9        29.75R WCI  17
6HR MIN TEMP:  27; 6HR MAX TEMP:  33;

WAUTOMA        CLOUDY    21  12  68 NW13G20   29.78R WCI   9
6HR MIN TEMP:  21; 6HR MAX TEMP:  26; 6HR PCP: TRACE;

WISC RAPIDS    LGT SNOW  16   8  71 NW14      29.81R WCI   2
6HR MIN TEMP:  16; 6HR MAX TEMP:  22; 6HR PCP: TRACE;

CAMP DOUGLAS   FLURRIES  16  10  79 NW16G24   29.82R WCI   0
                                      6HR PCP: TRACE;

$$

WIZ011>013-019>022-031-037>040-048>050-090100-
NORTHEAST WISCONSIN

CITY           SKY/WX    TMP DP  RH WIND       PRES   REMARKS
ANTIGO         LGT SNOW  16  12  85 NW12      29.73R WCI   3
6HR MIN TEMP:  16; 6HR MAX TEMP:  24;

SHAWANO        FLURRIES  28  19  69 NW8       29.74R WCI  20
6HR MIN TEMP:  28; 6HR MAX TEMP:  33;

OCONTO         CLOUDY    25  23  92 N7        29.74R WCI  17
6HR MIN TEMP:  25; 6HR MAX TEMP:  30;

STURGEON BAY   CLOUDY    25  18  74 N16       29.74R WCI  12
6HR MIN TEMP:  25; 6HR MAX TEMP:  32;

GREEN BAY      LGT SNOW  26  23  88 NW9       29.73R FOG     WCI  17
6HR MIN TEMP:  26; 6HR MAX TEMP:  32; 6HR PCP:  0.07;

MANITOWOC      LGT SNOW  27  24  89 NW13      29.72R FOG     WCI  16
6HR MIN TEMP:  27; 6HR MAX TEMP:  32; 6HR PCP: TRACE;

APPLETON       LGT SNOW  27  21  80 NW8       29.71F WCI  18
CLINTONVILLE   CLOUDY    28  18  64 NW14G20   29.73R WCI  17
OSHKOSH        LGT SNOW  24  20  84 W14       29.73R FOG     WCI  12
6HR MIN TEMP:  25; 6HR MAX TEMP:  29; 6HR PCP: TRACE;

$$

WIZ032>034-041-042-053>061-090100-
SOUTHWEST WISCONSIN

CITY           SKY/WX    TMP DP  RH WIND       PRES   REMARKS
LA CROSSE      LGT SNOW  15   9  76 NW13      29.90R WCI   1
6HR MIN TEMP:  15; 6HR MAX TEMP:  20; 6HR PCP: TRACE;

SPARTA         LGT SNOW  15  10  81 NW9G20    29.88S WCI   3
6HR MIN TEMP:  15; 6HR MAX TEMP:  21;

VIROQUA        CLOUDY    13   8  79 NW12      29.83R WCI  -1
6HR MIN TEMP:  13; 6HR MAX TEMP:  19;

BOSCOBEL       CLOUDY    18   8  65 NW12G20   29.87R WCI   5
6HR MIN TEMP:  18; 6HR MAX TEMP:  23;

PRAIRIE DU CHI CLOUDY    17   6  64 NW13G21   29.89R WCI   3
6HR MIN TEMP:  17; 6HR MAX TEMP:  22;

PLATTEVILLE    CLOUDY    19  12  75 W15       29.82R WCI   4
6HR MIN TEMP:  19; 6HR MAX TEMP:  22;

$$

WIZ056-057-062-063-064-067-068-090100-
SOUTH CENTRAL WISCONSIN

CITY           SKY/WX    TMP DP  RH WIND       PRES   REMARKS
REEDSBURG      CLOUDY    18   9  69 NW14G22   29.81R WCI   4
6HR MIN TEMP:  18; 6HR MAX TEMP:  21;

BARABOO/DELLS  CLOUDY    19   9  67 NW14G23   29.80R WCI   5
6HR MIN TEMP:  19; 6HR MAX TEMP:  22;

LONE ROCK      CLOUDY    20   9  62 NW16G24   29.84R WCI   6
6HR MIN TEMP:  20; 6HR MAX TEMP:  23;

MINERAL POINT  CLOUDY    21  12  68 NW9       29.79S WCI  11
MADISON        FLURRIES  21  13  71 NW14G20   29.78R WCI   8
6HR MIN TEMP:  21; 6HR MAX TEMP:  24; 6HR PCP: TRACE;

MIDDLETON      CLOUDY    23  14  69 NW13      29.79R WCI  11
6HR MIN TEMP:  23; 6HR MAX TEMP:  25;

WATERTOWN      FLURRIES  23  19  87 NW15      29.75R WCI  10
6HR MIN TEMP:  23; 6HR MAX TEMP:  26;

MONROE         CLOUDY    23  14  68 NW13      29.77R WCI  11
JANESVILLE     CLOUDY    25  18  74 NW18      29.77R WCI  11
$$

WIZ051-052-058>065-066-070>072-090100-
SOUTHEAST WISCONSIN

CITY           SKY/WX    TMP DP  RH WIND       PRES   REMARKS
MILWAUKEE      FLURRIES  26  20  77 NW12      29.71R WCI  16
6HR MIN TEMP:  25; 6HR MAX TEMP:  28; 6HR PCP:  0.02;

WAUKESHA       CLOUDY    21  18  86 W16       29.73R WCI   7
MILWAUKEE/TIMM FLURRIES  25  18  74 NW16      29.73R WCI  12
RACINE         LGT SNOW  25  19  78 W13       29.73R WCI  14
6HR MIN TEMP:  25; 6HR MAX TEMP:  28; 6HR PCP: TRACE;

BURLINGTON     CLOUDY    23  17  78 NW13      29.74R WCI  11
6HR MIN TEMP:  23; 6HR MAX TEMP:  25;

KENOSHA        LGT SNOW  25  19  78 NW14      29.72R WCI  13
6HR MIN TEMP:  25; 6HR MAX TEMP:  28; 6HR PCP: TRACE;

FOND DU LAC    LGT SNOW  24  19  81 NW14      29.74R WCI  12
6HR MIN TEMP:  24; 6HR MAX TEMP:  27; 6HR PCP:  0.01;

SHEBOYGAN      LGT SNOW  26  23  88 NW10      29.71R VSB 1   WCI  16
6HR MIN TEMP:  26; 6HR MAX TEMP:  29; 6HR PCP: TRACE;

WEST BEND      LGT SNOW  25  21  86 W9        29.71R WCI  15
JUNEAU         FLURRIES  22  16  77 NW13      29.75R WCI  10
6HR MIN TEMP:  22; 6HR MAX TEMP:  25;

$$

LSZ147-162-090100-
LAKE SUPERIOR

STATION/POSITION TIME  TEMP    WIND        PRES    WAVE
                       AIR SEA DIR/SP/G            HT/PER
                 (UTC) (F)     (DEG/KT/KT) (MB)    (FT/S)
DEVILS ISLAND    0000   15     320/ 24/ 27 1013.7R
PORT WING        2340   15     320/ 20/ 24 1013.5R
SAXON HARBOR     2300   16                 1011.5S
$$

LMZ867-665-643>646-090100-
LAKE MICHIGAN

STATION/POSITION TIME  TEMP    WIND        PRES    WAVE
                       AIR SEA DIR/SP/G            HT/PER
                 (UTC) (F)   C1F1C2F2C3F3C4F4C5F5C6F6C7F7C8M1C9M2Ca!



USA.gov is the U.S. government's official web portal to all federal, state and local government web resources and services.